Terminal Aerodrome Forecast
Issued by NWS Twin Cities, MN

Home | Current Version | Previous Version | Text Only | Print | Product List | Glossary On
Versions: 1 2 3 4 5 6 7 8 9 10 11 12 13 14 15 16 17 18 19 20 21 22 23 24 25
000
FTUS43 KMPX 251741
TAFMSP
TAF
KMSP 251741Z 2518/2624 VRB04KT P6SM SKC
     FM252100 25007KT P6SM SKC
     FM260400 19004KT P6SM SCT250
     FM261000 20005KT P6SM BKN200
     FM261400 27010KT P6SM SCT040 OVC100
     FM261600 31012G18KT P6SM VCSH BKN040 OVC100
     FM262000 32014G22KT P6SM SCT040=

USA.gov is the U.S. government's official web portal to all federal, state and local government web resources and services.